Regional Weather Roundup
Issued by NWS

Home | Current Version | Previous Version | Graphics & Text | Print | Product List | Glossary On
Versions: 1 2 3 4 5 6 7 8 9 10 11 12 13 14 15 16 17 18 19 20 21 22 23 24 25 26 27 28 29 30 31 32 33 34 35 36 37 38 39 40 41 42 43 44 45 46 47 48 49 50
000
ASUS43 KLSX 270607
RWRMO

WEATHER SUMMARY FOR MISSOURI
NATIONAL WEATHER SERVICE SPRINGFIELD MO
100 AM CDT WED AUG 27 2014

NOTE: "FAIR" INDICATES FEW OR NO CLOUDS BELOW 12,000 FEET WITH NO
       SIGNIFICANT WEATHER AND/OR OBSTRUCTIONS TO VISIBILITY.
       CURRENT SKY AND/OR WEATHER CONDITIONS ARE NOT AVAILABLE FOR
       CHILLICOTHE AND FARMINGTON.

MOZ001>031-035>038-043-044-053-054-270700-
...NORTHERN AND WESTERN MISSOURI...

CITY           SKY/WX    TMP DP  RH WIND       PRES   REMARKS
KANSAS CTY INT FAIR      77  71  82 E9        30.10R
6HR MIN TEMP:  77; 6HR MAX TEMP:  83;

KANSAS C DTWN  FAIR      79  72  79 E8        30.09R
6HR MIN TEMP:  79; 6HR MAX TEMP:  88;

LEE`S SUMMIT   FAIR      76  72  87 E7        30.10S
6HR MIN TEMP:  76; 6HR MAX TEMP:  87;

ST JOSEPH      FAIR      75  71  87 E7        30.10R
6HR MIN TEMP:  74; 6HR MAX TEMP:  81;

CHILLICOTHE      N/A     75  69  81 E3        30.13S
6HR MIN TEMP:  75; 6HR MAX TEMP:  85;

KIRKSVILLE     FAIR      71  67  87 E3        30.15R
6HR MIN TEMP:  71; 6HR MAX TEMP:  80;


$$
MOZ066>068-077>081-088>096-101>105-270700-
...SOUTHWEST MISSOURI...

CITY           SKY/WX    TMP DP  RH WIND       PRES   REMARKS
SPRINGFIELD    FAIR      73  68  84 N3        30.10S
6HR MIN TEMP:  73; 6HR MAX TEMP:  83; 6HR PCP:  0.01;

JOPLIN         FAIR      75  68  78 E6        30.08S
6HR MIN TEMP:  74; 6HR MAX TEMP:  85; 6HR PCP:  0.01;


$$
MOZ032>034-039>042-045>050-055>058-069>072-270700-
...CENTRAL MISSOURI...

CITY           SKY/WX    TMP DP  RH WIND       PRES   REMARKS
COLUMBIA       FAIR      77  74  90 NE5       30.11R
6HR MIN TEMP:  76; 6HR MAX TEMP:  84;

JEFFERSON CITY FAIR      75  69  81 CALM      30.09S
6HR MIN TEMP:  75; 6HR MAX TEMP:  84;

ROLLA          FAIR      72  66  81 CALM      30.11R
6HR MIN TEMP:  70; 6HR MAX TEMP:  79;

SEDALIA        FAIR      74  70  87 SE5       30.10S
6HR MIN TEMP:  73; 6HR MAX TEMP:  91;

WHITEMAN AFB   CLEAR     73  63  69 CALM      30.09R
OSAGE BEACH    MOCLDY    70  66  88 CALM      30.11R

$$
MOZ051-052-059>065-270700-
...EAST CENTRAL MISSOURI...

CITY           SKY/WX    TMP DP  RH WIND       PRES   REMARKS
ST LOUIS INTL  MOCLDY    75  68  78 E9        30.13F
6HR MIN TEMP:  75; 6HR MAX TEMP:  85; 6HR PCP:  0.04;

SPIRIT OF STL  LGT RAIN  76  68  76 E8G17     30.10R
6HR MIN TEMP:  76; 6HR MAX TEMP:  84; 6HR PCP: TRACE;

ST CHARLES     FAIR      74  67  78 E6        30.10F
6HR MIN TEMP:  74; 6HR MAX TEMP:  84; 6HR PCP:  0.02;


$$
MOZ072>076-082>087-097>100-106>115-270700-
...SOUTH CENTRAL AND SOUTHEAST MISSOURI...

CITY           SKY/WX    TMP DP  RH WIND       PRES   REMARKS
CAPE GIRARDEAU FAIR      75  72  90 CALM      30.08R
6HR MIN TEMP:  73; 6HR MAX TEMP:  89;

FARMINGTON     FAIR      73  70  88 CALM      30.14S
6HR MIN TEMP:  73; 6HR MAX TEMP:  88;

POPLAR BLUFF   FAIR      74  70  87 CALM      30.07S
6HR MIN TEMP:  74; 6HR MAX TEMP:  90;

WEST PLAINS    FAIR      74  68  81 N3        30.13S
6HR MIN TEMP:  73; 6HR MAX TEMP:  90;


$$



USA.gov is the U.S. government's official web portal to all federal, state and local government web resources and services.